This demonstration page uses our WeatherBlox Daily Observations layout. Learn more.

Left ArrowRight Arrow

40.92945, -100.16068

Hourly Observations for July 4, 2019

Temp ( °F °C ) Dew Point ( °F °C ) Humidity (%) Winds ( mph kmh ) Pressure ( in mb ) Visibility ( mi km ) Precip ( " mm )
12:15 am 00:15 Clear 73 22.7 68 20.1 85 85 SE 8 13 29.76 1008 10 16 N/A
12:35 am 00:35 Clear 72 22.3 68 20 87 87 ESE 8 13 29.78 1009 10 16 N/A
12:55 am 00:55 Clear 70 20.9 67 19.7 93 93 E 6 9 29.79 1009 10 16 N/A
1:15 am 01:15 Clear 69 20.6 67 19.7 95 95 E 6 9 29.81 1009 10 16 N/A
1:35 am 01:35 Clear 70 20.9 68 19.8 93 93 E 5 7 29.79 1009 10 16 N/A
1:55 am 01:55 Clear 70 21.2 68 20.1 93 93 ESE 6 9 29.79 1009 10 16 N/A
2:15 am 02:15 Clear 70 21 68 20 94 94 ESE 7 11 29.78 1009 10 16 N/A
2:35 am 02:35 Clear 69 20.8 68 20 95 95 SE 5 7 29.78 1008 10 16 N/A
2:55 am 02:55 Clear 69 20.6 68 19.9 96 96 ESE 6 9 29.78 1008 10 16 N/A
3:15 am 03:15 Clear 69 20.5 68 19.8 96 96 SE 3 6 29.77 1008 10 16 N/A
3:35 am 03:35 Clear 67 19.4 66 19.1 98 98 ENE 5 7 29.78 1008 7 11 N/A
3:55 am 03:55 Clear with Mist and Fog 66 18.9 66 18.9 100 100 ENE 5 7 29.77 1008 5 8 N/A
4:15 am 04:15 Clear with Mist and Fog 66 18.7 66 18.7 100 100 ENE 7 11 29.77 1008 5 8 N/A
4:35 am 04:35 Clear 66 19 66 19 100 100 NNE 7 11 29.78 1009 7 11 N/A
4:55 am 04:55 Partly Cloudy 66 19.1 66 19 99 99 NE 6 9 29.81 1009 7 11 N/A
5:15 am 05:15 Partly Cloudy with Mist and Fog 67 19.3 67 19.2 99 99 NE 7 11 29.82 1010 5 8 N/A
5:35 am 05:35 Clear with Mist and Fog 67 19.5 67 19.3 99 99 ENE 9 15 29.83 1010 5 8 N/A
5:55 am 05:55 Partly Cloudy with Mist and Fog 67 19.5 67 19.3 99 99 E 8 13 29.84 1010 5 8 N/A
6:15 am 06:15 Cloudy with Mist and Fog 68 20 67 19.7 98 98 E 7 11 29.85 1011 5 8 N/A
6:35 am 06:35 Cloudy with Mist and Fog 68 20 67 19.7 98 98 ENE 7 11 29.84 1011 4 6 N/A
6:55 am 06:55 Mostly Cloudy with Mist and Fog 67 19.7 67 19.6 99 99 E 7 11 29.84 1011 3 5 N/A
7:15 am 07:15 Mostly Cloudy with Mist and Fog 68 20.1 68 20 99 99 ENE 7 11 29.86 1011 4 6 N/A
7:35 am 07:35 Cloudy with Mist and Fog 69 20.6 68 20.1 97 97 ENE 9 15 29.88 1012 5 8 N/A
7:55 am 07:55 Cloudy 69 20.7 68 20.1 96 96 NE 8 13 29.88 1012 7 11 N/A
8:15 am 08:15 Cloudy 68 20 65 18.2 89 89 NE 20 31 29.89 1012 7 11 N/A
8:35 am 08:35 Cloudy 67 19.4 63 17.2 87 87 NE 13 20 29.91 1013 10 16 N/A
8:55 am 08:55 Cloudy 67 19.3 63 17.1 87 87 E 15 24 29.90 1012 10 16 N/A
9:15 am 09:15 Cloudy 67 19.6 63 17 85 85 E 16 26 29.89 1012 10 16 N/A
9:35 am 09:35 Cloudy 68 20.1 63 17.2 83 83 E 15 24 29.88 1012 10 16 N/A
9:55 am 09:55 Cloudy 70 21.2 64 17.7 81 81 E 14 22 29.86 1011 10 16 N/A
10:15 am 10:15 Cloudy 70 21.1 64 17.5 80 80 E 17 28 29.87 1012 10 16 N/A
10:35 am 10:35 Cloudy 71 21.5 64 17.8 80 80 E 16 26 29.87 1011 10 16 N/A
10:55 am 10:55 Cloudy 71 21.5 64 18 81 81 E 15 24 29.87 1011 10 16 N/A
11:15 am 11:15 Cloudy 71 21.6 65 18.4 82 82 E 15 24 29.87 1011 10 16 N/A
11:35 am 11:35 Cloudy 71 21.7 65 18.6 83 83 E 14 22 29.87 1011 10 16 N/A
11:55 am 11:55 Cloudy 71 21.5 66 18.8 85 85 E 15 24 29.87 1011 10 16 N/A
12:15 pm 12:15 Cloudy 71 21.6 66 19.1 86 86 E 13 20 29.87 1011 10 16 N/A
12:35 pm 12:35 Cloudy 73 22.9 67 19.7 82 82 E 13 20 29.86 1011 10 16 N/A
12:55 pm 12:55 Cloudy 75 23.8 68 19.9 79 79 E 9 15 29.85 1011 10 16 N/A
1:15 pm 13:15 Cloudy 77 24.9 68 20.2 75 75 E 12 19 29.84 1011 10 16 N/A
1:35 pm 13:35 Cloudy 76 24.7 68 20 75 75 ESE 10 17 29.83 1010 10 16 N/A
1:55 pm 13:55 Cloudy 77 25.2 68 20.2 74 74 ESE 12 19 29.82 1010 10 16 N/A
2:15 pm 14:15 Cloudy 79 26.1 69 20.4 71 71 SSE 12 19 29.80 1009 10 16 N/A
2:35 pm 14:35 Mostly Cloudy 81 27.1 69 20.5 67 67 SE 13 20 29.78 1009 10 16 N/A
2:55 pm 14:55 Partly Cloudy 82 27.6 69 20.3 64 64 SE 14 22 29.78 1008 10 16 N/A
3:15 pm 15:15 Partly Cloudy 82 27.7 69 20.4 65 65 SE 14 22 29.78 1008 10 16 N/A
3:35 pm 15:35 Partly Cloudy 82 27.6 67 19.6 62 62 SSE 8 13 29.78 1008 10 16 N/A
3:55 pm 15:55 Partly Cloudy 85 29.3 68 20 57 57 SE 9 15 29.78 1008 10 16 N/A
4:15 pm 16:15 Partly Cloudy 84 28.8 68 19.9 59 59 SE 8 13 29.78 1008 10 16 N/A
4:35 pm 16:35 Sunny 84 28.9 67 19.6 57 57 SE 8 13 29.78 1008 10 16 N/A
4:55 pm 16:55 Sunny 85 29.7 68 20 56 56 SSE 6 9 29.76 1008 10 16 N/A
5:15 pm 17:15 Mostly Cloudy 86 30.1 69 20.4 56 56 S 9 15 29.76 1008 10 16 N/A
5:35 pm 17:35 Mostly Cloudy 86 29.8 69 20.6 58 58 SE 9 15 29.76 1008 10 16 N/A
5:55 pm 17:55 Mostly Cloudy 85 29.3 69 20.5 59 59 SSE 10 17 29.77 1008 10 16 N/A
6:15 pm 18:15 Mostly Cloudy 85 29.7 69 20.5 58 58 SE 9 15 29.76 1008 10 16 N/A
6:35 pm 18:35 Partly Cloudy 85 29.3 69 20.7 60 60 SE 6 9 29.77 1008 10 16 N/A
6:55 pm 18:55 Sunny 85 29.6 69 20.7 59 59 SE 9 15 29.76 1008 10 16 N/A
7:15 pm 19:15 Sunny 85 29.6 69 20.7 59 59 SE 8 13 29.76 1008 10 16 N/A
7:35 pm 19:35 Mostly Cloudy 84 28.9 70 21.1 63 63 ESE 9 15 29.77 1008 10 16 N/A
7:55 pm 19:55 Cloudy 83 28.3 70 21.1 65 65 E 7 11 29.77 1008 10 16 N/A
8:15 pm 20:15 Cloudy 83 28.2 70 21 65 65 E 10 17 29.78 1009 10 16 N/A
8:35 pm 20:35 Cloudy 82 27.6 71 21.5 69 69 ENE 6 9 29.80 1009 10 16 N/A
8:55 pm 20:55 Partly Cloudy 79 26.1 71 21.6 76 76 NE 6 9 29.81 1010 10 16 N/A
9:15 pm 21:15 Mostly Cloudy 79 26.1 70 21.2 74 74 ENE 9 15 29.82 1010 10 16 N/A
9:35 pm 21:35 Cloudy 79 26 70 21 74 74 ENE 10 17 29.83 1010 10 16 N/A
9:55 pm 21:55 Cloudy 78 25.5 69 20.7 75 75 ENE 9 15 29.84 1010 10 16 N/A
10:15 pm 22:15 Mostly Cloudy 76 24.7 69 20.6 78 78 ENE 9 15 29.84 1011 10 16 N/A
10:35 pm 22:35 Mostly Cloudy with Light Rain 75 23.8 70 20.9 84 84 ENE 8 13 29.87 1012 10 16 N/A
10:55 pm 22:55 Mostly Cloudy with Thunderstorms 74 23.6 69 20.6 83 83 ENE 12 19 29.84 1011 10 16 N/A
11:15 pm 23:15 Mostly Cloudy with Thunderstorms 75 23.7 69 20.4 82 82 E 9 15 29.86 1011 10 16 N/A
11:35 pm 23:35 Mostly Cloudy with Thunderstorms 76 24.6 68 20.1 76 76 ESE 13 20 29.84 1011 10 16 N/A
11:55 pm 23:55 Clear with Thunderstorms 75 24.1 69 20.7 81 81 SE 13 20 29.86 1011 10 16 N/A

Powered by AerisWeather